Location: Campolattaro
(41.2833°N, 14.7333°E)
Time: 17:44:32
(UTC+00:00)

Cosmos 1782 - Pass Details

Date: 19 May 2025
Orbit: 478 x 490 km, 82.5° (Epoch: 16 June)

Event Time Altitude Azimuth Distance (km) Brightness Sun altitude
Rises 18:44:17 0° 172° (S) 2,554 5.8 -5.3°
Reaches altitude 10° 18:46:26 10° 166° (SSE) 1,677 4.9 -5.6°
Maximum altitude 18:49:56 44° 93° (E) 687 3.0 -6.2°
Drops below altitude 10° 18:53:27 10° 21° (NNE) 1,685 5.5 -6.7°
Sets 18:55:37 0° 15° (NNE) 2,569 6.5 -7.1°
